{"data":{"norad_id":66458,"intl_designator":"2025-262C","name":"STARLINK-35684","alt_names":[],"object_type":"PAYLOAD","status":"ACTIVE","operator":null,"country":"US","launch_date":"2025-11-15","launch_site_code":"AFETR","launch_vehicle":null,"mission":null,"orbit_class":"UNKNOWN","rcs_meters":null,"size_class":null,"mass_kg":null,"dimensions":null,"purposes":["comms"],"wikipedia_slug":null,"has_3d_model":false,"image_url":null,"decayed_at":null,"tle_current":{"epoch":"2026-05-25T04:35:47.412672Z","epoch_age_seconds":58504,"freshness":"FRESH","line1":"1 66458U 25262C   26145.19152098  .00015234  00000+0  56188-3 0  9994","line2":"2 66458  42.9988 224.3700 0001261 280.9956  79.0754 15.27585409 30605","mean_motion":15.27585409,"eccentricity":0.0001261,"inclination_deg":42.9988,"raan_deg":224.37,"arg_perigee_deg":280.9956,"mean_anomaly_deg":79.0754,"bstar":0.00056188,"rev_number":3060,"period_min":94.266414926198,"perigee_km":482.16770607123,"apogee_km":483.89809311991,"semimajor_km":6861.1698995956,"source":"CELESTRAK","updated_at":"2026-05-25T13:38:21.214115Z"}}}